Weather Roundup
Issued by NWS Chicago, IL

Home | Current Version | Previous Version | Graphics & Text | Print | Product List | Glossary On
Versions: 1 2 3 4 5 6 7 8 9 10 11 12 13 14 15 16 17 18 19 20 21 22 23 24 25 26 27 28 29 30 31 32 33 34 35 36 37 38 39 40 41 42 43 44 45 46 47 48 49 50
000
NZUS59 KLOT 301821
HRRLOT

CHICAGO AREA WEATHER ROUNDUP
NATIONAL WEATHER SERVICE CHICAGO/ROMEOVILLE IL
100 PM CDT THU JUL 30 2015

NOTE: "FAIR" INDICATES FEW OR NO CLOUDS BELOW 12,000 FEET WITH NO
SIGNIFICANT WEATHER AND/OR OBSTRUCTIONS TO VISIBILITY.

* THESE STATIONS ARE NOT UNDER NWS QUALITY CONTROL. THEY ALSO MAY NOT
  REPORT WEATHER SUCH AS PRECIPITATION OR FOG.

ILZ005-006-012>014-019>023-301900-
NORTHEAST ILLINOIS

CITY           SKY/WX    TMP DP  RH WIND       PRES   REMARKS
OHARE          MOSUNNY   86  54  33 W15       30.06S HX  84
6HR MIN TEMP:  67; 6HR MAX TEMP:  87;

MIDWAY         MOSUNNY   88  53  30 W12G20    30.06S HX  86
6HR MIN TEMP:  71; 6HR MAX TEMP:  88;

AURORA         SUNNY     84  57  39 NW12      30.09S HX  83
6HR MIN TEMP:  63; 6HR MAX TEMP:  84;

LANSING*       SUNNY     85  55  35 W8G21     30.07F HX  84
JOLIET*        SUNNY     85  56  37 NW9G16    30.09S HX  84
WAUKEGAN       SUNNY     84  56  38 VRB7G17   30.04F HX  83
6HR MIN TEMP:  67; 6HR MAX TEMP:  84;

DUPAGE AIRPORT SUNNY     86  54  33 W12G18    30.07F HX  84
6HR MIN TEMP:  65; 6HR MAX TEMP:  86;

WHEELING       SUNNY     86  52  30 NW17G26   30.07S HX  84
6HR MIN TEMP:  68; 6HR MAX TEMP:  86;

KANKAKEE*      SUNNY     84  59  42 NW9       30.10S HX  84
MORRIS*        SUNNY     83  59  44 NW15      30.08F HX  83
LEWIS AIRPORT* SUNNY     83  54  36 NW13      30.09S HX  82
NORTHERLY IS     N/A     85  50  29 NW9         N/A  HX  83
$$

WIZ051-052-058>065-066-070>072-301900-
SOUTHEAST WISCONSIN

CITY           SKY/WX    TMP DP  RH WIND       PRES   REMARKS
MILWAUKEE      MOSUNNY   86  51  29 W18G30    30.02F HX  84
6HR MIN TEMP:  69; 6HR MAX TEMP:  86;

KENOSHA*       MOSUNNY   84  59  42 W15G24    30.04F HX  84
RACINE*        MOSUNNY   86  52  30 NW16G23   30.04F HX  84
BURLINGTON     SUNNY     83  53  35 W16G22    30.05S HX  82
WAUKESHA       MOSUNNY   82  54  36 W17G29    30.04F HX  81
WEST BEND      MOSUNNY   82  52  34 W12G25    30.01F HX  81
$$

INZ001>003-010>013-019-020-301900-
NORTHWEST INDIANA

CITY           SKY/WX    TMP DP  RH WIND       PRES   REMARKS
GARY*          MOSUNNY   86  52  30 NW14      30.07S HX  84
MICHIGAN CITY* NOT AVBL
RENSSELAER*    NOT AVBL
VALPARAISO     SUNNY     84  53  34 N10G21    30.08S HX  82
$$

LMZ740>746-301900-
SOUTHERN LAKE MICHIGAN

STATION/POSITION TIME  SKY/WX   TEMP WIND        PRES    VSBY
                                AIR  DIR/SP/G
                 (UTC)          (F)  (DEG/KT/KT) (MB)    (MI)
HARRISON CRIB    1800            81  310/ 15/ 17   N/A
BURNHAM HARBOR   1800            85  310/ 11/ 16   N/A
CALUMET HARBOR   1700            84  320/  7/ 13   N/A
BURNS HARBOR     1700            76  280/  5/  6 1018.6S
MICHIGAN CITY    1800            75  230/  9/ 10   N/A
$$

ABBREVIATIONS USED IN REMARKS
   TC - TEMPERATURE IN CELSIUS
  WCI - WIND CHILL INDEX
   HX - HEAT INDEX
  VSB - VISIBILITY
$$



USA.gov is the U.S. government's official web portal to all federal, state and local government web resources and services.